sat.trackr.live / text

‹ back to catalog

STARLINK-35326

NORAD 66031 · 2025-232AC

PAYLOAD ACTIVE UNKNOWN

§ Identity

Operator
Country
US
Launch date
2025-10-16
Launch site
AFETR
Launch vehicle
Mass (kg)
RCS (m²)

Purposes: comms

External: N2YO · Heavens-Above · Gunter

§ Orbital elements

Epoch: 2026-05-25T03:34:46.714656Z

Period
93.85 min
Inclination
53.1596°
Eccentricity
0.0000764
Mean motion
15.34379221 rev/d
Perigee alt
462.2 km
Apogee alt
463.3 km
Semi-major
6,840.9 km
B*
6.5577e-4
RAAN
108.6199°
Arg perigee
121.9216°
Mean anomaly
238.1860°
Rev number
3,514

§ Raw data

STARLINK-353261 66031U 25232AC  26145.14915179  .00021830  00000+0  65577-3 0  99912 66031  53.1596 108.6199 0000764 121.9216 238.1860 15.34379221 35148

JSON: /api/v1/satellites/66031 · /tle

For live sub-satellite position, see the globe view (requires WebGL).

§ Visibility from observer

Set your observer location to see the next 7 days of passes ≥ 10°. The values pass through the URL so the page stays shareable.

No JS? Fill the form by hand. The geolocation button needs JavaScript.